Weather History for Ann Arbor, MI

Change the Weather History Date:

Sunday, January 6, 2013

  Actual Average Record
Temperature  
Mean Temperature 34 °F -  
Max Temperature 35 °F 31 °F 54 °F (2008)
Min Temperature 32 °F 16 °F -15 °F (2014)
Degree Days  
Heating Degree Days 32    
Moisture  
Dew Point 28 °F    
Average Humidity 81    
Maximum Humidity 87    
Minimum Humidity 70    
Precipitation  
Precipitation 0.00 in - - ()
Sea Level Pressure  
Sea Level Pressure 30.01 in    
Wind  
Wind Speed 11 mph (WSW)    
Max Wind Speed 16 mph    
Max Gust Speed 25 mph    
Visibility 6 miles    
Events Snow    
Averages and records for this station are not official NWS values.
T = Trace of Precipitation, MM = Missing Value Source: NWS Daily Summary

Daily Weather History Graph

Daily Weather History Graph

Search for Another Location

Airport:

Trip Planner

Search our weather history database for the weather conditions in past years. The results will help you decide how hot, cold, wet, or windy it might be!

Date:

Astronomy

Jan. 06, 2013 Rise Set
Actual Time 8:03 AM EST 5:18 PM EST
Civil Twilight 7:32 AM EST 5:50 PM EST
Nautical Twilight 6:57 AM EST 6:25 PM EST
Astronomical Twilight 6:23 AM EST 6:58 PM EST
Moon 2:14 AM EST (1/6) 12:47 PM EST (1/6)
Length of Visible Light 10h 17m
Length of Day
9h 14m
Waning Crescent, 33% of the Moon is Illuminated
Jan 6
Waning Crescent
Jan 11
New
Jan 18
First Quarter
Jan 26
Full
Feb 3
Last Quarter

Hourly Weather History & Observations

Time (EST) Temp. Windchill Dew Point Humidity Pressure Visibility Wind Dir Wind Speed Gust Speed Precip Events Conditions
12:46 AM 33.8 °F 24.3 °F 28.4 °F 81% 30.00 in 7.0 mi SW 13.8 mph - 0.00 in   Overcast
12:53 AM 33.1 °F 23.9 °F 28.9 °F 85% 30.03 in 7.0 mi SW 12.7 mph - 0.00 in   Overcast
1:18 AM 33.8 °F 25.3 °F 28.4 °F 81% 29.98 in 7.0 mi SW 11.5 mph - N/A   Overcast
1:53 AM 33.1 °F 24.9 °F 28.0 °F 82% 30.00 in 7.0 mi SW 10.4 mph - N/A   Overcast
2:17 AM 33.8 °F 24.3 °F 28.4 °F 81% 29.97 in 7.0 mi SW 13.8 mph - N/A   Overcast
2:53 AM 33.1 °F 24.9 °F 28.0 °F 82% 29.99 in 7.0 mi SW 10.4 mph - N/A   Overcast
3:02 AM 33.8 °F 26.4 °F 28.4 °F 81% 29.96 in 8.0 mi SW 9.2 mph - N/A   Overcast
3:32 AM 33.8 °F 24.8 °F 28.4 °F 81% 29.95 in 7.0 mi SW 12.7 mph - N/A   Overcast
3:53 AM 33.1 °F 24.4 °F 28.0 °F 82% 29.97 in 7.0 mi SW 11.5 mph - N/A   Overcast
4:35 AM 33.8 °F 26.4 °F 28.4 °F 81% 29.93 in 5.0 mi SW 9.2 mph - 0.00 in Snow Light Snow
4:53 AM 33.1 °F 25.5 °F 28.9 °F 85% 29.95 in 5.0 mi SW 9.2 mph - 0.00 in Snow Light Snow
5:53 AM 33.1 °F 25.5 °F 28.9 °F 85% 29.94 in 5.0 mi SW 9.2 mph - 0.00 in Snow Light Snow
6:33 AM 33.8 °F 27.0 °F 28.4 °F 81% 29.91 in 7.0 mi SW 8.1 mph - 0.00 in   Overcast
7:53 AM 34.0 °F 28.0 °F 28.9 °F 82% 29.93 in 8.0 mi SW 6.9 mph - N/A   Overcast
8:53 AM 34.0 °F 27.2 °F 28.9 °F 82% 29.94 in 6.0 mi SSW 8.1 mph - N/A   Haze
9:53 AM 34.0 °F 27.2 °F 28.9 °F 82% 29.94 in 6.0 mi SSW 8.1 mph - N/A   Haze
11:53 AM 35.1 °F 26.4 °F 28.9 °F 78% 29.94 in 6.0 mi SW 12.7 mph - N/A   Haze
12:12 PM 35.6 °F 29.2 °F 30.2 °F 81% 29.91 in 4.0 mi SW 8.1 mph - N/A   Haze
12:53 PM 35.1 °F 27.9 °F 30.9 °F 85% 29.94 in 4.0 mi WSW 9.2 mph - N/A   Overcast
1:27 PM 35.6 °F 25.9 °F 28.4 °F 75% 29.91 in 8.0 mi West 16.1 mph 25.3 mph N/A   Overcast
1:48 PM 33.8 °F 24.8 °F 30.2 °F 87% 29.92 in 3.0 mi West 12.7 mph 25.3 mph N/A   Overcast
1:53 PM 34.0 °F 24.6 °F 30.0 °F 85% 29.95 in 3.0 mi West 13.8 mph - N/A   Overcast
2:04 PM 33.8 °F 25.3 °F 30.2 °F 87% 29.92 in 4.0 mi West 11.5 mph - N/A   Overcast
2:15 PM 33.8 °F 25.3 °F 30.2 °F 87% 29.93 in 3.0 mi West 11.5 mph 21.9 mph N/A   Overcast
2:25 PM 33.8 °F 25.3 °F 30.2 °F 87% 29.93 in 4.0 mi West 11.5 mph - N/A   Overcast
2:53 PM 33.1 °F 23.4 °F 28.9 °F 85% 29.97 in 3.0 mi West 13.8 mph - N/A   Overcast
3:53 PM 33.1 °F 24.4 °F 28.9 °F 85% 30.02 in 3.0 mi NW 11.5 mph - 0.00 in   Overcast
4:53 PM 32.0 °F 23.6 °F 27.0 °F 82% 30.06 in 5.0 mi WNW 10.4 mph - N/A   Haze
5:00 PM 32.0 °F 23.6 °F 26.6 °F 80% 30.03 in 5.0 mi WNW 10.4 mph - N/A   Haze
5:29 PM 32.0 °F 25.6 °F 28.4 °F 87% 30.05 in 5.0 mi WNW 6.9 mph - N/A   Overcast
5:53 PM 33.1 °F 25.5 °F 27.0 °F 78% 30.09 in 6.0 mi WNW 9.2 mph - N/A   Haze
6:53 PM 33.1 °F 26.9 °F 27.0 °F 78% 30.14 in 6.0 mi WNW 6.9 mph - N/A   Haze
7:53 PM 33.1 °F 26.9 °F 27.0 °F 78% 30.17 in 7.0 mi NW 6.9 mph - N/A   Overcast
8:53 PM 33.1 °F 26.9 °F 25.0 °F 72% 30.19 in 9.0 mi NW 6.9 mph - N/A   Overcast
9:53 PM 33.1 °F 26.9 °F 24.1 °F 70% 30.22 in 10.0 mi NW 6.9 mph - N/A   Overcast
10:53 PM 33.1 °F 27.7 °F 24.1 °F 70% 30.25 in 10.0 mi NW 5.8 mph - N/A   Overcast
11:53 PM 32.0 °F 26.4 °F 24.1 °F 73% 30.28 in 10.0 mi NW 5.8 mph - N/A   Overcast